www.pogodaiklimat.ru

Погода и климат >> Архив погоды >> Россия >> Якутия >> Сангар


ПОГОДА в Сангаре

  • Прогноз погоды в Сангаре
  • Монитор погоды в Сангаре

АРХИВ ПОГОДЫ в Сангаре

Время (UTC), дата Ветер
(напр.,м/с)
 
Видим.   Явления Облачность Т
(С)
Тd
(С)
f
(%)
Тe
(С)
Тes
(С)
Комфортность P
(гПа)
Po
(гПа)
Тmin
(С)
Tmax
(С)
R
(мм)
R24
(мм)
S
(см)
03 10.07 ЮВ 5 50 км 10/0
[Ac trans Ci sp]
+22.5 +15.1 63 +26 +31 жарко 1006.0 995.0
06 10.07 Ю 4 50 км 10/0
[Ci sp]
+20.3 +16.7 80 +23 +29 комфорт 1006.1 995.0
09 10.07 Ю 3 50 км 10/0
[Ci fib]
+21.1 +16.7 76 +25 +27 комфорт 1006.6 995.5
12 10.07 ЮВ 2 50 км 5/0
[Ci fib]
+20.2 +17.3 83 +24 +24 комфорт 1006.8 995.7 +24.0
15 10.07 штиль 0 50 км 1/0
[Ci fib]
+15.5 +14.3 93 +15 +15 1007.3 996.6
18 10.07 штиль 0 2000 м дымка ясно +12.7 +12.5 99 +12 +12 1008.4 997.0
21 10.07 СЗ 1 20 км туман поземный 5/0
[]
+17.8 +17.0 95 +19 +20 1008.6 997.4
00 11.07 З 1 50 км 8/0
[Ci fib]
+20.0 +17.7 87 +24 +31 комфорт 1008.8 997.7 +12.2
03 11.07 Ю 1 50 км 3/1 600 м
[Cu hum Ci fib]
+24.6 +18.6 69 +29 +41 душно 1009.1 998.1
06 11.07 З 4 50 км 3/0
[Ci fib]
+27.4 +18.3 58 +32 +38 очень
душно
1008.2 997.4
09 11.07 СЗ 4 50 км ясно +27.4 +16.5 51 +31 +33 душно 1007.8 997.0
12 11.07 СЗ 4 50 км ясно +23.7 +15.2 59 +27 +27 жарко 1008.4 997.4 +29.2
15 11.07 СЗ 1 50 км ясно +19.5 +15.1 76 +22 +22 комфорт 1008.5 997.4
18 11.07 штиль 0 50 км ясно +13.0 +12.1 94 +12 +12 1009.5 998.1
21 11.07 штиль 0 50 км 6/0
[Ci fib]
+15.3 +13.7 90 +15 +17 1010.2 998.9
00 12.07 Ю 1 50 км 4/0
[Ci fib]
+21.0 +15.7 72 +26 +34 душно 1010.1 999.0 +12.1
03 12.07 штиль 0 50 км 3/0
[Ci fib]
+26.8 +12.1 40 +28 +43 жарко 1009.4 998.5
06 12.07 СЗ 2 50 км 3/0
[Ci fib]
+29.7 +15.5 42 +32 +41 душно 1007.8 997.0
09 12.07 штиль 0 50 км 3/0
[Ci fib]
+30.8 +14.9 38 +33 +37 душно 1007.0 996.3
12 12.07 СЗ 1 н/о +27.6 +14.9 46 +30 +30 жарко 1006.8 996.0 +30.8
15 12.07 штиль 0 50 км ясно +17.2 +13.3 78 +17 +17 1007.3 996.1
18 12.07 СВ 1 50 км ясно +14.2 +12.9 92 +14 +14 1007.4 996.0
21 12.07 штиль 0 50 км ясно +19.5 +16.7 84 +21 +24 комфорт 1007.1 996.0
00 13.07 З 2 50 км 8/0
[Ci fib]
+23.6 +15.1 59 +26 +33 жарко 1007.1 996.1 +13.6
03 13.07 СЗ 3 50 км 8/0
[Ci fib]
+29.1 +16.5 47 +33 +41 очень
душно
1006.0 995.2
06 13.07 З 3 50 км 8/0
[Ci fib]
+31.9 +14.9 36 +34 +41 душно 1004.8 994.1
09 13.07 СЗ 2 50 км 8/0
[Ci fib]
+28.4 +14.3 42 +31 +33 душно 1003.8 993.0
12 13.07 З 1 50 км 4/0
[Ci fib]
+25.7 +16.5 57 +29 +29 душно 1004.0 993.1 +32.1
15 13.07 штиль 0 50 км 4/0
[Ci fib]
+15.4 +14.0 91 +15 +15 1004.6 993.3
18 13.07 СВ 1 50 км 10/0
[Ci fib]
+15.8 +14.0 89 +16 +16 1004.5 993.1
21 13.07 штиль 0 50 км 6/0
[Ci fib]
+17.9 +15.5 86 +18 +20 1004.3 993.1
00 14.07 СЗ 2 20 км 9/0
[Cs]
+24.1 +16.5 63 +28 +34 душно 1004.7 993.8 +14.7
03 14.07 ЮЗ 2 20 км 3/0
[Ci fib]
+25.8 +16.0 55 +29 +40 душно 1005.0 994.1
06 14.07 СЗ 3 20 км 4/1 600 м
[Cu med, cong Ci fib]
+27.6 +18.2 57 +32 +39 очень
душно
1004.6 993.8
09 14.07 СЗ 5 20 км 10/3 1000 м
[Sc diur, vesp Ci fib]
+30.0 +15.0 40 +32 +33 жарко 1004.2 993.4
12 14.07 СЗ 5 50 км 3/0
[Cc]
+22.5 +18.4 78 +28 +28 душно 1005.5 994.5 +30.0
15 14.07 СЗ 4 50 км 8/0
[Ci fib]
+20.6 +18.0 85 +24 +24 комфорт 1005.9 994.8
18 14.07 СЗ 4 50 км 8/0
[Ci fib]
+17.5 +13.3 76 +17 +17 1006.4 995.2
21 14.07 З 5 50 км 1/0
[Ci fib]
+17.6 +13.6 77 +17 +18 1007.0 995.8
00 15.07 СЗ 4
{11}
50 км ясно +19.2 +12.8 66 +20 +25 1007.9 996.8 +17.4
03 15.07 СЗ 4 50 км 5/0
[Ci fib]
+22.3 +12.7 55 +25 +32 комфорт 1007.8 996.8
06 15.07 СЗ 4 50 км 6/0
[Ci fib]
+24.2 +14.3 54 +27 +32 жарко 1007.7 996.7
09 15.07 СЗ 6-11
{13}
50 км ясно +24.2 +13.0 50 +26 +28 жарко 1007.1 996.1
12 15.07 СЗ 5-10
{12}
50 км ясно +22.2 +11.7 51 +24 +25 комфорт 1007.4 996.3 +24.4
15 15.07 СЗ 3
{10}
50 км ясно +18.8 +12.2 65 +20 +20 1008.0 996.9
18 15.07 СЗ 5 50 км ясно +15.7 +5.2 50 +15 +15 1008.5 997.2
21 15.07 СЗ 2 50 км 6/0
[Ci fib]
+14.5 +5.2 54 +14 +16 1009.0 997.6
00 16.07 СЗ 6-11
{11}
50 км 3/0
[Ci fib]
+17.1 +9.3 60 +16 +19 1009.7 998.4 +13.7
03 16.07 З 5-10
{12}
50 км 6/0
[Ac trans Ci fib]
+19.8 +8.0 46 +21 +25 комфорт 1009.0 997.8
06 16.07 СЗ 7-12
{14}
50 км ясно +23.5 +7.5 36 +24 +27 комфорт 1007.9 996.9
09 16.07 СЗ 8-13
{13}
20 км 4/0
[Ci fib]
+22.4 +9.0 42 +24 +24 комфорт 1007.0 996.0
12 16.07 СЗ 6-11
{14}
20 км 8/0
[Ci fib]
+19.6 +12.5 64 +21 +21 комфорт 1007.0 996.0 +23.9
15 16.07 СЗ 5-10
{12}
10 км ясно +16.7 +9.7 63 +16 +16 1006.6 995.4
18 16.07 СЗ 3
{11}
20 км ясно +15.3 +4.4 48 +15 +15 1006.4 995.1
21 16.07 СЗ 4 50 км 6/0
[Ci fib]
+17.0 +8.7 58 +17 +17 1006.3 995.1

 

Местоположение метеостанции Сангар (Якутия, Россия): широта 63.95 долгота 127.40 высота над уровнем моря 96 м.

В архиве по умолчанию представлена погода в Сангаре за последнюю неделю. Архивные данные за месяц целиком и за предыдущие месяцы, начиная с января 2011 года, Вы можете получить, выбрав интересующий диапазон дат из раскрывающегося списка и нажав кнопку "Ввод!".


*Определитесь, кто Вы:
робот инопланетянин человек

Внимание! Время в таблицах - всемирное. Для получения местного времени необходимо прибавить поправку, которая равна 9 ч.

Смотрите также архив погоды в соседних городах и на ближайших метеорологических станциях:

Погода в Сого-Хае (Якутия, Россия) (61 км)
Погода в Батамае (Якутия, Россия) (109 км)
Погода в Хатырык-Хомо (Якутия, Россия) (127 км)
Погода в Сеген-Кюеле (Якутия, Россия) (142 км)
Погода в Намцах (Якутия, Россия) (175 км)
Погода в Бердигестяхе (Якутия, Россия) (188 км)
Погода в Себян-Кюеле (Якутия, Россия) (195 км)
Погода в Бестяхской Звероферме (Якутия, Россия) (217 км)
Погода в Верхоянском Перевозе (Якутия, Россия) (238 км)
Погода в Якутске (Якутия, Россия) (244 км)

Пояснения к столбцам:

Ветер - указаны скорость ветра в м/с - средняя за 10 мин, порывы в срок и между сроками (в фигурных скобках) и направление, откуда дует ветер: С - северный, СВ - северо-восточный, В - восточный, ЮВ - юго-восточный, Ю - южный, ЮЗ - юго-западный, З - западный, СЗ - северо-западный.
Видимость - горизонтальная дальность видимости в метрах или километрах. При видимости от 1 до 10 км при отсутствии осадков обычно наблюдается дымка, при ухудшении видимости до 1 км и менее - туман. В сухую погоду видимость может ухудшаться дымом, пылью или мглою.
Явления - указаны атмосферные явления, наблюдавшиеся в срок или в последний час перед сроком; фигурными скобками обозначены явления, наблюдавшиеся между сроками (за 1-3 часа до срока); квадратными скобками обозначены град или гололедные отложения с указанием их диаметра в мм.
Облачность - указаны через наклонную черту общая и нижняя облачность в баллах и высота нижней границы облаков в метрах; квадратными скобками обозначены формы облаков: Ci - перистые, Cs - перисто-слоистые, Cc - перисто-кучевые, Ac - высококучевые, As - высокослоистые, Sc - слоисто-кучевые, Ns - слоисто-дождевые, Cu - кучевые, Cb - кучево-дождевые. Подробнее классификацию облаков см. в Атласе облаков (PDF).
T - Температура воздуха - температура, измеренная на высоте 2 м над землей.
Td - Температура точки росы - температура, при понижении до которой содержащийся в воздухе водяной пар достигнет насыщения.
f - Относительная влажность воздуха - влажноcть воздуха, измеренная на высоте 2 м над землей.
Te - Эффективная температура - температура, которую ощущает одетый по сезону человек в тени. Характеристика душности погоды. При расчете учитывается влияние влажности воздуха и скорости ветра на теплоощущения человека.
Tes - Эффективная температура на солнце - температура, которую ощущает человек, с поправкой на солнечный нагрев. Характеристика знойности погоды. Зависит от высоты солнца над горизонтом, облачности и скорости ветра. Ночью, в пасмурную погоду, а также при ветре 12 м/с и более поправка равна нулю.
P - Атмосферное давление - приведенное к уровню моря атмосферное давление.
Po - Атмосферное давление - измеренное на уровне метеостанции атмосферное давление.
Tmin - Минимальная температура - минимум температуры воздуха на высоте 2 м над землей.
Tmax - Максимальная температура - максимум температуры воздуха на высоте 2 м над землей.
R - Количество осадков - Количество выпавших осадков за период времени, мм. При наведении курсора мыши на число - период времени, за который выпало указанное количество осадков.
R24 - Количество осадков - Количество выпавших осадков за 24 часа, мм.
S - Снежный покров - Высота снежного покрова, см. При наведении курсора мыши на число - состояние снежного покрова и степень покрытия местности в баллах.